Wind_Speed
9 10 10 11 11 10 10 10 11 11 11 11 11 11 11 10 10 11 11 11 12 12 11 9 8 7 7 7 8 8 7 6 6 5 6 6 7 7 7 8 10 11 12
8 9 9 10 10 10 10 10 10 11 11 10 10 10 11 11 11 12 12 12 12 13 12 10 9 8 9 8 8 9 8 7 6 6 6 6 7 7 8 8 9 11 12
7 8 9 10 10 10 10 10 10 11 11 11 10 10 11 12 12 12 12 12 12 13 12 11 10 10 11 10 9 9 9 8 8 8 8 7 7 9 9 10 10 11 11
7 9 10 10 10 10 10 10 10 11 11 12 12 12 12 12 12 12 12 13 13 13 13 13 12 12 12 12 11 11 10 9 9 9 9 9 9 10 10 11 11 12 12
9 9 10 10 11 11 10 11 11 12 12 13 13 14 14 13 13 13 13 13 14 14 13 13 13 14 14 14 13 13 12 11 10 11 11 11 11 11 12 13 13 13 14
9 10 11 11 12 12 12 12 12 13 13 13 14 14 14 13 13 14 14 14 14 14 14 14 15 15 15 15 14 14 14 13 13 13 12 13 13 13 14 15 15 16 16
12 13 13 11 12 12 12 13 13 13 13 13 13 14 14 14 15 15 15 15 15 15 15 15 15 16 16 16 16 16 16 15 15 15 15 15 16 16 16 16 17 18 18
15 15 14 13 13 13 13 13 14 15 15 15 15 15 15 15 16 17 16 16 16 17 17 17 17 17 18 17 18 18 18 18 18 17 17 17 17 18 18 18 19 19 18
16 15 14 14 14 14 14 14 15 16 16 16 16 16 16 17 17 17 17 17 17 17 18 17 18 19 19 19 20 20 20 20 20 19 19 19 20 20 20 20 20 20 20
17 15 15 15 15 16 16 17 18 18 18 18 18 18 18 18 18 18 17 18 18 19 19 19 20 21 21 21 21 21 22 21 22 21 21 21 22 22 22 22 22 22 23
17 17 16 16 17 17 19 19 19 19 19 19 19 20 20 20 20 20 20 20 20 20 20 20 21 21 22 22 23 23 23 23 23 23 23 23 23 23 23 23 23 23 24
19 19 19 18 18 19 20 21 21 21 21 22 21 22 22 21 22 22 22 22 22 22 22 22 23 23 23 23 24 24 24 24 24 24 24 24 24 24 24 24 24 25 25
21 20 20 20 20 21 21 22 22 23 23 23 24 24 24 23 24 24 24 23 23 23 24 24 24 24 24 25 25 25 25 26 25 25 25 24 24 24 24 25 25 26 26
23 23 21 22 23 22 23 23 24 24 24 25 26 25 25 25 25 25 26 25 25 25 25 26 25 25 25 25 26 26 27 26 26 25 25 25 25 25 25 25 26 27 27
25 26 25 24 24 25 25 25 26 26 27 27 27 26 26 26 26 27 27 27 27 26 26 27 27 27 27 27 27 27 28 27 27 27 26 25 25 25 26 26 27 27 27
26 26 27 27 27 27 27 27 27 28 28 27 26 27 27 27 27 28 28 28 28 28 28 28 28 28 28 28 28 28 28 28 28 28 28 27 27 27 27 27 27 28 28
27 27 28 29 28 28 28 28 29 29 28 28 27 27 28 28 28 28 28 28 29 29 28 28 29 29 29 29 29 29 29 29 29 28 27 27 27 27 27 28 29 28 28
30 30 30 30 29 29 30 30 31 31 30 29 30 30 29 29 28 28 29 29 30 30 30 31 30 30 30 30 30 30 30 29 28 28 28 29 29 29 28 27 27 27 28
33 32 31 31 30 30 31 32 32 31 31 31 30 29 29 29 29 30 30 30 30 30 31 31 31 31 30 30 30 30 29 30 29 29 30 29 29 29 28 28 28 28 28
33 33 33 32 31 31 33 33 33 33 32 32 30 30 30 30 30 31 31 30 30 30 30 31 31 30 30 30 30 30 30 31 31 31 31 30 30 30 29 29 29 29 29
33 33 33 33 33 34 34 34 34 33 33 32 32 32 31 32 32 32 31 31 31 30 30 31 31 31 31 32 31 31 31 31 30 30 31 30 30 31 31 31 30 30 31
33 33 34 35 36 35 35 35 34 34 34 34 34 33 33 33 32 32 32 32 32 31 31 31 31 31 31 31 31 31 31 31 31 31 30 31 31 31 31 31 31 31 32
34 34 34 35 36 37 37 37 36 36 36 35 35 35 35 33 32 33 33 32 31 31 31 31 31 31 31 31 31 32 32 31 31 31 31 31 31 31 31 31 31 32 32
35 35 35 36 36 36 37 37 36 36 36 36 35 35 35 34 34 33 33 33 33 32 31 31 31 31 31 31 32 32 32 32 32 32 31 31 31 31 31 32 32 32 32
36 36 36 37 37 36 36 36 37 36 36 36 35 35 35 35 34 33 33 33 33 33 32 31 32 32 32 31 31 31 32 32 32 32 32 32 31 31 32 32 32 32 32
35 35 36 37 37 37 36 36 36 35 35 35 35 34 34 34 34 34 33 32 32 32 32 32 32 32 31 30 31 31 31 32 32 32 31 31 31 31 31 31 31 31 32
Wind_Direction
4 6 10 11 11 10 8 8 6 5 4 2 1 358 356 358 359 358 355 353 352 351 350 343 342 344 344 344 339 335 333 330 322 314 302 284 271 267 269 261 254 254 255
2 2 3 2 2 360 356 357 358 355 353 351 351 350 352 349 347 346 347 347 346 348 348 343 345 349 347 345 341 337 329 321 317 313 307 299 285 278 277 272 265 261 260
351 352 353 355 355 351 347 347 348 344 344 345 344 340 340 337 338 338 339 340 339 340 344 343 343 344 341 339 335 332 326 318 314 307 297 291 289 286 285 285 282 275 272
339 343 343 345 347 345 342 341 339 337 338 338 339 339 334 331 331 331 333 334 333 332 335 336 337 333 329 329 331 331 323 316 312 310 303 293 288 282 282 286 286 280 276
327 330 329 333 338 337 335 332 329 333 333 333 334 334 332 330 330 331 330 327 326 327 329 330 328 324 322 324 324 325 323 318 317 315 310 300 293 286 286 288 287 282 277
315 318 318 328 325 328 328 324 326 329 327 328 330 330 329 328 326 326 326 326 323 321 322 321 320 319 319 318 317 317 318 317 314 313 310 309 302 296 291 288 287 284 280
310 316 314 318 318 324 327 323 322 320 318 321 322 324 323 322 321 320 320 322 320 317 314 313 312 314 315 313 311 311 311 310 309 307 306 306 303 296 294 290 286 283 282
306 311 308 309 314 316 317 317 316 313 314 316 319 321 318 319 319 319 318 316 316 315 312 309 308 309 310 309 308 308 308 306 305 303 301 302 301 296 296 295 291 286 284
304 308 309 312 310 309 309 312 313 312 310 310 311 314 314 314 314 316 315 313 312 310 308 308 307 308 307 306 304 305 305 303 302 300 298 298 298 296 296 294 291 288 287
305 306 304 308 310 308 307 305 307 308 308 307 308 309 309 308 308 310 312 311 309 308 305 304 304 304 303 303 303 302 303 302 301 299 297 297 297 294 294 294 291 289 287
299 301 308 308 309 308 309 308 305 304 303 305 306 307 307 306 305 305 305 305 305 304 303 303 302 302 302 301 299 299 300 301 299 297 295 296 295 294 293 293 291 290 289
297 298 301 304 305 305 304 305 304 303 303 303 303 305 305 304 303 302 302 302 301 300 300 300 300 299 301 300 299 298 298 298 297 295 293 293 293 294 294 293 291 290 288
296 299 300 297 298 299 300 300 300 300 302 303 302 301 302 302 302 301 300 299 299 298 298 298 299 298 299 300 299 297 296 298 297 296 294 292 291 291 292 292 291 290 290
295 297 299 298 298 296 298 299 299 303 301 302 301 298 297 299 299 299 298 297 297 296 296 296 296 297 297 297 297 295 295 295 295 296 295 293 292 291 292 293 292 291 290
292 294 295 295 294 296 298 299 301 303 302 300 299 296 296 297 297 297 297 297 296 295 295 295 294 294 294 294 294 293 293 294 294 294 294 294 292 292 293 293 294 293 290
286 291 292 293 295 296 298 299 300 300 301 299 297 297 296 296 297 296 296 296 296 295 294 293 293 292 293 293 294 293 291 292 292 291 292 293 293 293 292 293 294 294 292
286 289 291 292 294 294 295 297 299 300 300 299 298 297 297 295 295 296 295 294 294 294 293 292 292 292 291 291 292 292 291 291 291 291 292 292 294 294 295 293 293 293 292
285 287 289 290 291 293 294 297 298 297 297 297 296 295 293 293 295 296 295 294 293 292 291 290 290 290 290 290 289 289 289 289 289 290 291 292 293 295 294 293 293 294 293
282 284 286 288 290 292 294 296 297 296 296 296 296 294 292 291 294 295 295 294 294 294 292 289 290 290 290 290 288 287 288 289 290 289 290 291 293 293 291 292 293 293 293
279 282 284 287 289 291 294 295 294 294 296 297 294 293 294 293 294 294 293 293 292 292 293 291 290 290 290 289 288 286 286 287 288 288 289 290 291 291 290 291 292 292 292
279 282 283 285 286 289 291 293 293 293 294 295 296 294 293 294 294 294 295 293 293 292 291 291 291 290 289 289 288 287 287 287 286 286 287 288 289 289 289 290 291 291 291
279 282 283 284 286 288 289 291 291 291 292 293 294 294 293 293 293 293 294 293 292 291 292 291 291 291 291 291 290 289 288 287 285 285 285 286 287 288 289 289 289 289 290
279 282 283 285 287 287 289 290 290 290 291 292 293 293 293 292 293 293 294 293 292 292 291 291 291 290 290 290 290 290 289 288 288 287 286 286 286 286 288 289 290 290 290
281 282 284 285 286 287 287 288 288 288 290 291 291 291 292 292 291 292 293 293 292 292 291 289 289 289 289 289 289 289 288 288 288 287 286 286 286 286 286 288 289 290 289
282 283 284 285 286 286 286 286 287 287 288 289 290 290 289 290 291 291 291 291 291 290 290 290 290 289 288 287 287 286 286 287 289 288 286 286 285 285 287 288 288 289 289
281 282 283 284 284 284 285 285 286 287 288 288 289 289 290 290 290 290 290 291 290 289 288 289 290 291 289 288 287 286 286 286 287 287 289 288 287 286 287 287 288 289 289
Height
5922 5921 5919 5918 5916 5915 5914 5912 5911 5910 5908 5907 5905 5903 5902 5900 5899 5898 5896 5894 5893 5891 5889 5887 5886 5885 5883 5882 5880 5879 5877 5876 5874 5873 5872 5871 5871 5871 5869 5869 5869 5869 5869
5922 5921 5919 5918 5916 5915 5913 5912 5910 5909 5907 5906 5905 5903 5902 5900 5899 5897 5896 5894 5892 5890 5888 5886 5885 5883 5882 5880 5878 5877 5875 5874 5873 5872 5870 5870 5870 5869 5868 5868 5867 5866 5866
5921 5920 5918 5917 5916 5914 5912 5911 5909 5908 5906 5905 5903 5902 5900 5899 5897 5896 5894 5893 5891 5889 5887 5885 5883 5882 5880 5878 5877 5875 5873 5872 5870 5870 5869 5868 5867 5867 5867 5865 5864 5864 5863
5920 5919 5917 5915 5914 5913 5911 5910 5908 5906 5905 5903 5902 5900 5899 5897 5895 5894 5893 5891 5889 5887 5886 5884 5882 5880 5878 5876 5874 5873 5871 5870 5868 5867 5866 5865 5864 5864 5863 5862 5861 5860 5859
5918 5917 5915 5914 5913 5911 5910 5908 5906 5905 5903 5901 5900 5898 5897 5895 5893 5892 5890 5889 5887 5885 5884 5882 5880 5878 5876 5874 5873 5871 5869 5867 5866 5865 5863 5863 5862 5860 5860 5859 5858 5856 5855
5915 5914 5913 5912 5911 5910 5908 5906 5905 5903 5901 5900 5898 5896 5894 5892 5891 5890 5888 5886 5884 5883 5881 5879 5878 5876 5874 5872 5870 5868 5866 5864 5862 5861 5860 5859 5858 5857 5856 5855 5854 5852 5851
5913 5912 5911 5910 5908 5907 5905 5904 5903 5901 5898 5897 5896 5894 5892 5890 5888 5886 5885 5883 5881 5879 5878 5876 5874 5872 5871 5869 5867 5865 5863 5861 5860 5858 5857 5855 5854 5853 5852 5850 5849 5848 5847
5909 5908 5907 5906 5905 5904 5902 5900 5899 5898 5896 5894 5893 5891 5889 5886 5885 5883 5881 5879 5878 5876 5874 5872 5870 5869 5867 5865 5863 5861 5860 5858 5856 5854 5852 5851 5849 5847 5846 5845 5844 5842 5841
5906 5905 5904 5903 5902 5900 5899 5897 5895 5894 5892 5891 5889 5887 5885 5883 5881 5879 5877 5875 5873 5872 5870 5868 5866 5864 5862 5861 5859 5857 5855 5853 5851 5849 5847 5846 5844 5842 5841 5839 5838 5837 5836
5903 5901 5900 5899 5898 5897 5895 5892 5891 5889 5888 5886 5884 5883 5881 5879 5877 5875 5873 5871 5869 5867 5865 5863 5862 5859 5857 5855 5854 5852 5850 5848 5846 5844 5842 5840 5838 5836 5835 5833 5831 5830 5829
5899 5897 5896 5895 5893 5892 5890 5888 5886 5884 5882 5881 5879 5877 5876 5874 5872 5870 5868 5866 5864 5862 5860 5858 5856 5854 5852 5850 5848 5846 5844 5842 5840 5838 5836 5834 5832 5830 5828 5826 5824 5823 5821
5895 5894 5892 5890 5889 5887 5886 5884 5881 5879 5877 5876 5874 5872 5870 5868 5866 5864 5862 5860 5858 5856 5854 5852 5850 5848 5846 5844 5842 5840 5838 5836 5834 5832 5829 5828 5825 5824 5821 5819 5818 5816 5814
5890 5889 5887 5885 5884 5882 5880 5879 5877 5874 5872 5870 5868 5866 5864 5862 5860 5858 5856 5854 5852 5850 5848 5846 5844 5842 5839 5837 5835 5833 5831 5829 5827 5825 5823 5820 5818 5816 5814 5812 5810 5808 5806
5885 5884 5883 5881 5879 5877 5875 5873 5871 5869 5866 5864 5862 5860 5858 5856 5853 5851 5849 5847 5845 5843 5841 5839 5837 5835 5832 5830 5828 5826 5824 5822 5820 5817 5815 5813 5811 5809 5807 5805 5803 5801 5798
5879 5878 5877 5875 5873 5871 5869 5867 5864 5862 5860 5858 5855 5853 5851 5849 5846 5844 5842 5840 5837 5835 5833 5831 5829 5827 5825 5823 5821 5819 5816 5814 5812 5810 5808 5805 5803 5801 5799 5797 5795 5792 5790
5871 5870 5869 5868 5866 5864 5862 5860 5858 5856 5853 5850 5848 5845 5843 5841 5839 5837 5835 5832 5830 5828 5825 5823 5821 5819 5817 5815 5813 5811 5809 5807 5804 5802 5800 5798 5796 5794 5791 5789 5786 5784 5782
5863 5863 5861 5860 5859 5857 5855 5853 5851 5849 5846 5843 5840 5838 5836 5834 5831 5829 5827 5824 5822 5820 5817 5815 5813 5811 5809 5807 5805 5802 5801 5798 5796 5794 5792 5790 5788 5785 5783 5780 5778 5776 5774
5856 5855 5854 5853 5851 5850 5848 5846 5844 5842 5839 5836 5833 5831 5829 5826 5824 5821 5819 5816 5814 5811 5809 5807 5805 5803 5801 5799 5796 5794 5792 5790 5788 5786 5784 5782 5780 5777 5775 5772 5770 5768 5765
5849 5847 5846 5845 5844 5843 5841 5839 5837 5834 5831 5828 5826 5823 5821 5818 5815 5813 5810 5808 5805 5803 5801 5798 5796 5794 5792 5790 5788 5785 5783 5782 5780 5778 5776 5774 5771 5769 5766 5764 5762 5759 5757
5841 5840 5839 5838 5837 5835 5833 5831 5829 5826 5823 5820 5817 5815 5813 5810 5807 5804 5802 5799 5797 5795 5792 5790 5788 5785 5783 5781 5779 5777 5775 5773 5771 5769 5767 5765 5762 5760 5757 5755 5753 5751 5749
5832 5831 5831 5829 5828 5827 5825 5822 5820 5817 5815 5812 5809 5807 5804 5802 5799 5796 5793 5791 5788 5786 5784 5781 5779 5777 5774 5772 5769 5767 5765 5763 5762 5760 5757 5755 5753 5751 5748 5746 5744 5742 5739
5823 5822 5821 5820 5819 5817 5815 5813 5811 5808 5806 5803 5800 5798 5795 5792 5790 5787 5784 5782 5780 5777 5775 5772 5770 5767 5765 5763 5760 5758 5756 5754 5752 5750 5748 5746 5744 5741 5739 5737 5734 5732 5729
5814 5813 5812 5811 5809 5807 5805 5803 5801 5799 5796 5794 5791 5788 5785 5783 5780 5778 5775 5773 5770 5768 5766 5763 5761 5758 5756 5754 5751 5749 5746 5744 5742 5740 5738 5736 5734 5731 5729 5727 5724 5722 5719
5804 5803 5802 5801 5799 5797 5795 5793 5790 5788 5786 5783 5781 5778 5776 5773 5771 5768 5766 5763 5761 5758 5756 5754 5751 5749 5746 5744 5741 5739 5736 5734 5732 5730 5728 5726 5723 5721 5719 5717 5714 5712 5710
5795 5794 5792 5790 5788 5786 5784 5782 5780 5778 5776 5773 5771 5768 5766 5763 5761 5759 5756 5754 5751 5749 5746 5744 5741 5739 5736 5734 5731 5729 5726 5724 5722 5720 5717 5715 5713 5711 5709 5707 5704 5702 5699
5785 5784 5782 5780 5778 5776 5774 5772 5770 5768 5765 5763 5761 5758 5755 5753 5751 5749 5746 5744 5742 5739 5736 5734 5731 5729 5726 5723 5721 5719 5717 5715 5712 5710 5708 5705 5703 5701 5699 5696 5694 5692 5689